Terminal Aerodrome Forecast
Issued by NWS Bismarck, ND

Home | Current Version | Previous Version | Graphics & Text | Print | Product List | Glossary On
Versions: 1 2 3 4 5 6 7 8 9 10 11 12 13 14 15 16 17 18
520
FTUS43 KBIS 242037 AAB
TAFISN
TAF AMD
KISN 242037Z 2421/2518 35016KT 3SM -RA BR VCSH BKN006 OVC010
     FM250000 34017G24KT 6SM -SHRA BR OVC007
     FM250700 32017G25KT 6SM -SHRA BR OVC010
     FM250800 32017G25KT P6SM BKN035=

USA.gov is the U.S. government's official web portal to all federal, state and local government web resources and services.